Wind_Speed
13 13 12 11 11 11 11 11 10 9 10 11 12 14 14 14 14 15 15 14 13 12 13 14 14 15 15 16 17 17 17 16 16 15 14 14 13 13 12 11 10 9
13 13 13 12 11 11 11 11 10 9 9 10 12 14 14 14 15 15 14 14 13 13 13 14 15 15 16 17 18 18 17 16 16 15 14 14 14 13 13 12 11 10
14 14 14 13 11 11 11 10 10 9 9 10 12 14 14 14 15 15 14 14 14 14 14 14 15 15 16 17 18 17 17 16 16 15 15 15 14 14 13 12 12 11
14 15 14 13 12 11 11 11 11 10 10 11 12 13 13 14 15 15 15 15 14 14 14 14 15 15 15 16 17 17 17 16 16 16 16 15 15 14 14 13 12 11
14 16 15 14 12 11 11 11 11 10 11 11 12 13 13 14 15 15 15 15 14 14 14 14 14 15 15 16 17 17 17 17 17 17 16 15 15 15 14 14 13 12
13 15 16 14 12 11 11 11 10 10 10 11 12 13 13 14 15 15 15 15 15 14 14 13 14 15 15 16 17 17 17 17 17 17 17 16 15 16 15 14 13 13
13 14 15 13 11 11 10 10 9 9 9 10 11 12 13 13 14 14 14 15 15 14 14 14 14 15 15 16 16 16 17 17 17 18 17 16 16 16 15 15 14 14
13 12 12 13 12 12 11 10 10 9 9 9 10 10 11 12 13 14 14 14 14 14 14 14 15 15 16 17 16 16 16 17 18 18 18 17 16 16 16 16 15 14
13 12 12 14 14 13 12 11 10 9 9 9 9 10 11 12 13 13 13 13 13 14 15 15 15 16 17 17 17 16 17 17 18 18 18 17 17 16 16 16 16 15
13 13 12 13 14 14 13 13 12 11 10 11 11 11 12 13 13 12 12 12 13 14 16 16 16 17 18 18 18 17 17 17 17 17 17 17 17 17 17 17 17 16
12 12 11 12 14 15 15 15 15 13 12 13 13 12 13 14 14 12 11 11 12 14 15 16 16 17 17 18 18 18 18 18 17 17 17 17 17 17 18 18 17 17
12 12 11 11 13 14 15 15 15 13 12 13 12 12 13 14 15 13 11 11 13 14 14 15 15 15 16 17 18 18 19 19 18 17 17 17 17 17 18 18 18 17
12 12 12 12 12 13 14 13 11 10 10 10 11 12 13 15 16 15 13 13 14 14 14 14 14 14 15 17 18 19 19 19 19 19 18 18 18 17 18 18 18 18
11 11 11 11 11 11 10 9 8 8 9 11 13 14 16 17 17 15 14 14 15 14 15 15 15 15 16 17 19 19 20 19 19 19 19 19 18 18 18 18 19 18
9 9 9 9 9 9 8 7 8 9 11 13 14 14 16 16 16 16 16 16 16 16 15 16 17 17 17 18 19 20 21 20 19 20 20 20 20 19 19 19 19 19
8 7 7 6 6 6 6 7 8 9 10 11 12 12 13 14 14 16 17 17 17 17 16 17 18 18 18 19 19 20 21 21 21 21 21 21 20 20 20 20 20 20
7 7 7 7 6 6 6 6 7 7 7 8 9 9 10 11 13 14 15 16 16 16 17 18 19 20 20 19 19 20 21 22 22 22 21 21 21 20 21 21 22 22
6 7 7 7 7 7 6 6 7 6 6 6 6 7 7 8 9 11 12 13 14 15 17 18 19 20 20 20 20 21 22 23 23 22 22 22 21 22 22 23 23 23
9 9 9 9 9 8 8 8 9 9 8 8 8 8 8 8 8 9 10 10 11 12 14 16 17 18 19 20 21 23 24 24 24 24 23 23 23 23 24 24 24 24
12 12 12 12 12 12 12 12 12 12 12 12 12 12 12 12 12 12 12 12 12 12 13 15 16 17 18 19 21 23 24 24 25 25 25 24 24 24 25 26 26 25
14 14 14 14 14 15 15 15 15 15 15 15 15 15 16 16 16 16 16 16 16 16 16 17 17 17 17 18 19 21 22 24 25 26 26 26 26 27 27 27 27 26
15 15 15 15 15 16 16 16 17 17 18 18 18 19 19 19 19 20 20 20 20 20 20 20 21 20 20 19 19 20 21 22 24 25 26 27 28 29 28 27 27 27
16 17 17 17 17 17 18 18 18 19 20 20 21 21 22 22 22 23 23 23 23 23 23 23 24 24 23 23 22 21 21 22 23 25 26 26 28 28 28 28 29 29
18 18 19 19 19 20 20 20 21 22 22 23 23 24 24 25 25 25 25 26 26 26 26 26 27 27 27 26 26 24 24 24 24 25 26 26 26 27 28 29 30 30
19 19 20 20 20 21 21 21 22 22 23 24 25 25 26 27 27 28 28 28 29 29 29 29 29 30 30 30 29 28 27 27 27 27 27 27 26 26 27 29 30 30
19 19 20 20 20 21 21 21 21 22 22 23 24 25 26 27 28 28 29 29 30 31 31 31 32 32 33 33 32 32 31 30 29 29 30 30 29 28 28 29 30 30
Wind_Direction
236 235 232 229 226 220 216 216 214 211 210 210 207 205 207 209 212 216 219 217 210 209 213 215 215 216 218 223 222 218 216 214 211 205 199 199 199 200 202 198 192 195
234 235 233 230 229 223 219 222 221 214 211 215 213 207 205 206 211 216 219 221 217 211 210 213 216 216 219 223 225 222 219 216 214 210 205 204 205 205 206 206 202 201
230 233 233 232 232 227 223 224 223 217 215 219 217 212 209 211 215 217 218 220 221 216 210 211 215 218 220 225 227 226 222 219 217 214 211 209 211 212 213 214 212 210
226 229 232 231 230 227 225 224 221 217 217 220 221 218 216 216 217 217 218 219 221 220 214 211 214 218 221 225 229 229 226 223 221 219 216 214 216 218 220 221 221 220
227 222 225 228 228 227 226 226 224 219 218 219 220 221 219 217 216 216 218 220 223 223 218 214 215 217 221 226 229 231 230 228 226 224 222 220 221 224 226 227 227 229
238 224 221 224 230 232 228 225 226 227 224 222 221 221 220 219 217 215 214 217 222 224 221 217 216 218 221 226 229 231 232 232 232 231 229 227 228 231 233 234 234 235
245 234 226 225 232 237 234 225 225 232 235 231 227 224 222 220 218 215 214 215 218 222 223 222 221 220 222 227 231 233 235 237 237 236 235 233 233 236 239 240 241 240
240 237 230 225 226 230 230 226 224 230 238 240 236 233 230 226 222 218 215 216 218 220 223 227 227 225 224 227 231 235 238 240 241 241 241 240 238 240 242 244 245 245
225 226 223 221 223 224 224 224 222 221 228 235 235 236 236 232 228 224 218 216 220 223 224 226 228 229 228 229 232 237 241 243 244 244 246 247 246 245 245 247 248 248
211 217 218 221 225 224 222 223 220 214 216 224 227 229 236 237 230 224 220 218 220 224 224 225 226 228 230 232 233 236 240 243 245 247 249 251 252 252 250 250 250 250
208 211 212 214 217 217 217 219 219 212 208 216 222 223 232 241 238 227 222 223 226 227 227 227 228 230 233 236 236 237 237 239 241 246 250 253 255 256 256 256 255 254
214 211 209 209 210 213 217 217 216 211 205 210 218 220 226 237 241 234 225 227 232 233 233 233 233 235 239 241 242 242 242 240 239 242 248 252 255 258 260 261 262 262
227 224 222 221 218 221 225 225 223 223 223 225 227 227 230 233 235 232 226 228 233 233 235 236 235 236 238 241 243 245 246 245 244 244 245 246 250 255 258 261 262 262
234 234 233 231 228 229 235 242 241 237 240 243 239 235 235 234 234 234 231 233 236 236 234 235 234 233 235 239 243 245 246 247 249 252 252 249 248 250 253 257 259 260
223 232 236 236 237 238 241 247 247 240 236 240 241 240 239 238 239 241 239 237 238 238 236 237 237 235 235 238 242 245 247 249 250 254 256 255 253 252 253 254 255 256
201 207 215 222 227 232 234 234 236 238 237 239 242 244 244 244 243 244 243 241 240 240 239 240 242 243 242 241 242 245 247 249 251 252 252 253 254 256 257 257 256 256
208 206 207 208 209 214 220 227 231 233 237 242 246 246 246 247 247 247 248 246 246 246 243 241 243 246 248 247 246 245 245 246 248 250 251 251 251 253 256 257 258 259
245 243 239 236 235 234 236 243 248 250 252 254 257 257 255 255 254 254 254 252 252 252 251 248 246 246 248 248 247 246 245 244 245 248 250 250 249 250 252 253 255 256
261 262 262 260 260 259 258 259 261 264 266 266 267 267 266 266 266 266 265 263 260 258 257 257 254 250 248 247 246 246 246 246 246 248 249 249 249 249 249 250 251 253
258 260 262 263 264 264 265 266 266 268 269 270 271 271 271 271 271 271 272 272 270 265 262 260 258 255 251 248 247 247 247 247 248 248 248 248 249 249 248 249 250 252
252 255 257 260 262 265 267 268 269 270 271 272 273 273 273 273 273 272 273 273 272 271 269 267 265 263 260 256 253 251 250 249 248 248 248 248 248 247 248 250 252 253
254 257 258 259 260 262 265 267 269 270 271 272 273 273 273 273 273 273 272 273 273 272 272 272 271 269 267 264 262 259 258 255 253 251 250 249 248 248 248 250 253 254
257 259 261 262 263 263 264 265 266 268 270 271 271 272 272 272 272 271 271 271 272 272 273 273 273 272 271 269 266 264 263 262 261 259 257 254 253 253 252 251 251 253
260 261 263 264 265 266 267 267 268 269 270 270 271 271 271 271 271 270 270 270 270 270 270 271 272 273 273 271 269 267 265 264 264 264 262 260 258 257 256 254 254 254
264 265 266 266 267 267 268 269 270 271 271 272 272 272 272 272 272 271 271 270 269 269 269 269 270 271 272 272 271 270 268 266 265 265 266 265 262 259 257 257 257 258
268 268 269 270 270 271 272 272 272 273 274 274 275 275 275 275 275 275 274 273 272 271 270 270 270 270 270 270 270 270 270 268 266 266 266 267 266 264 261 260 260 259
Height
5896 5896 5897 5897 5897 5897 5897 5898 5899 5900 5901 5901 5901 5902 5903 5904 5905 5906 5906 5907 5907 5908 5909 5909 5910 5910 5911 5912 5912 5912 5913 5914 5915 5915 5915 5916 5916 5917 5917 5918 5918 5917
5894 5895 5895 5895 5895 5895 5896 5897 5898 5899 5899 5900 5901 5901 5902 5902 5903 5904 5905 5906 5906 5907 5907 5908 5909 5909 5910 5911 5911 5912 5912 5912 5913 5914 5915 5915 5915 5916 5916 5917 5917 5917
5893 5894 5895 5895 5894 5894 5895 5895 5896 5897 5898 5899 5900 5900 5901 5901 5902 5902 5903 5905 5905 5906 5906 5907 5908 5909 5909 5910 5911 5911 5911 5912 5912 5913 5913 5914 5914 5915 5915 5915 5916 5916
5892 5893 5894 5894 5894 5894 5894 5895 5895 5896 5896 5898 5899 5899 5899 5900 5900 5901 5902 5903 5904 5905 5905 5906 5906 5907 5908 5909 5910 5911 5911 5911 5912 5912 5912 5912 5913 5914 5914 5914 5915 5915
5891 5892 5892 5893 5893 5893 5894 5895 5895 5895 5895 5896 5897 5897 5898 5898 5899 5900 5900 5901 5902 5903 5904 5904 5905 5906 5907 5908 5909 5910 5910 5910 5911 5911 5911 5911 5912 5912 5913 5913 5914 5914
5890 5891 5891 5892 5893 5894 5894 5894 5895 5895 5895 5895 5895 5896 5897 5897 5897 5898 5899 5900 5901 5902 5903 5904 5904 5905 5906 5907 5908 5908 5909 5909 5910 5910 5910 5911 5911 5911 5912 5912 5912 5912
5889 5889 5890 5891 5892 5893 5893 5893 5894 5894 5895 5895 5896 5896 5896 5896 5896 5896 5897 5898 5899 5900 5902 5903 5903 5904 5905 5906 5907 5907 5907 5908 5908 5909 5909 5909 5910 5910 5911 5911 5911 5911
5888 5888 5889 5890 5890 5891 5891 5892 5892 5893 5894 5896 5897 5897 5897 5896 5896 5896 5896 5897 5898 5899 5900 5901 5902 5903 5903 5904 5905 5905 5906 5907 5907 5907 5908 5908 5909 5909 5909 5910 5910 5910
5887 5887 5887 5887 5888 5889 5890 5890 5891 5892 5894 5895 5896 5896 5896 5896 5896 5895 5895 5895 5896 5898 5899 5900 5900 5901 5901 5901 5902 5903 5904 5905 5906 5906 5907 5907 5907 5907 5908 5908 5908 5909
5886 5886 5886 5887 5888 5888 5889 5889 5890 5890 5892 5893 5893 5894 5895 5896 5895 5894 5894 5894 5895 5896 5897 5897 5898 5898 5899 5899 5900 5900 5901 5903 5904 5904 5905 5905 5905 5906 5906 5906 5907 5907
5885 5885 5886 5886 5886 5887 5888 5888 5888 5889 5890 5890 5890 5891 5894 5895 5895 5894 5893 5893 5893 5894 5894 5895 5895 5896 5897 5897 5898 5898 5899 5900 5901 5902 5903 5903 5903 5903 5904 5904 5904 5905
5884 5884 5884 5885 5886 5887 5887 5888 5888 5888 5888 5888 5887 5888 5891 5894 5895 5893 5891 5891 5892 5893 5892 5892 5893 5894 5895 5895 5896 5897 5897 5898 5899 5899 5900 5901 5901 5901 5902 5902 5902 5902
5884 5884 5884 5884 5885 5886 5887 5887 5887 5886 5885 5884 5884 5886 5889 5891 5893 5892 5890 5889 5890 5891 5890 5890 5891 5892 5892 5893 5894 5895 5896 5896 5897 5897 5897 5898 5898 5899 5899 5899 5899 5899
5882 5883 5883 5883 5884 5884 5884 5884 5884 5883 5883 5883 5884 5886 5888 5889 5890 5888 5887 5887 5887 5888 5888 5888 5889 5889 5890 5891 5892 5893 5894 5894 5895 5895 5895 5896 5896 5896 5896 5897 5897 5897
5882 5882 5882 5882 5882 5882 5881 5882 5882 5883 5884 5884 5885 5885 5886 5886 5886 5885 5884 5884 5884 5885 5886 5886 5886 5886 5887 5888 5889 5890 5891 5892 5892 5893 5893 5893 5893 5894 5894 5894 5894 5894
5882 5882 5882 5882 5882 5882 5882 5883 5883 5884 5884 5884 5884 5884 5883 5883 5883 5883 5882 5882 5883 5883 5884 5884 5884 5884 5885 5886 5887 5888 5888 5889 5890 5890 5890 5891 5891 5891 5891 5891 5891 5891
5882 5883 5883 5883 5883 5883 5883 5883 5883 5883 5883 5883 5882 5882 5882 5882 5882 5882 5881 5881 5881 5881 5882 5882 5882 5883 5883 5884 5885 5885 5885 5886 5886 5886 5887 5888 5888 5888 5888 5889 5888 5888
5881 5882 5882 5882 5882 5882 5882 5882 5882 5882 5882 5882 5881 5881 5881 5881 5881 5881 5881 5880 5880 5879 5879 5880 5880 5881 5881 5882 5882 5882 5882 5882 5882 5883 5884 5884 5885 5885 5885 5885 5885 5885
5879 5880 5880 5880 5881 5881 5881 5881 5881 5881 5881 5881 5880 5880 5880 5880 5880 5880 5880 5879 5879 5878 5878 5878 5878 5878 5879 5879 5879 5879 5879 5879 5879 5879 5880 5881 5881 5881 5881 5881 5881 5881
5877 5877 5878 5878 5878 5879 5879 5880 5880 5880 5880 5880 5880 5880 5879 5879 5879 5879 5879 5879 5878 5877 5877 5876 5876 5876 5876 5876 5876 5876 5876 5876 5876 5876 5877 5877 5877 5877 5877 5877 5877 5878
5874 5875 5875 5876 5876 5876 5877 5877 5877 5877 5878 5878 5878 5878 5878 5878 5878 5878 5878 5877 5877 5876 5875 5874 5874 5874 5874 5873 5873 5873 5873 5873 5873 5873 5873 5873 5873 5873 5873 5873 5874 5875
5872 5872 5872 5872 5873 5873 5873 5874 5874 5874 5874 5875 5875 5875 5876 5876 5876 5876 5876 5875 5875 5874 5873 5873 5872 5872 5871 5871 5871 5871 5870 5870 5870 5869 5869 5869 5869 5868 5869 5871 5872 5873
5870 5870 5870 5870 5870 5870 5870 5870 5871 5871 5871 5871 5872 5872 5873 5873 5873 5874 5873 5873 5872 5872 5871 5870 5869 5869 5869 5869 5868 5868 5868 5867 5867 5866 5865 5865 5865 5865 5867 5868 5868 5868
5868 5868 5868 5867 5868 5868 5868 5868 5868 5868 5868 5868 5869 5869 5869 5870 5870 5870 5870 5870 5869 5869 5868 5867 5867 5866 5866 5865 5865 5865 5865 5865 5864 5863 5862 5862 5862 5863 5864 5863 5863 5863
5867 5866 5866 5866 5865 5865 5865 5865 5865 5865 5865 5865 5865 5866 5866 5866 5866 5866 5866 5866 5865 5865 5865 5864 5863 5863 5862 5862 5861 5861 5861 5861 5861 5860 5859 5859 5859 5859 5860 5859 5858 5859
5864 5864 5864 5864 5863 5863 5862 5862 5862 5862 5862 5862 5862 5862 5862 5862 5862 5862 5861 5861 5861 5861 5860 5860 5859 5859 5858 5858 5857 5857 5857 5857 5857 5857 5856 5855 5855 5855 5856 5855 5855 5855